Wind_Speed
20 20 20 20 20 19 19 19 19 17 18 19 19 19 20 20 19 19 18 18 18 18 17 17 17 18 18 18 18 18 18 18 18 18 18 18 18 18 18 18 19 19 19 18
21 21 21 21 20 20 20 20 20 19 19 19 19 19 20 21 20 20 19 19 19 18 18 18 18 18 19 19 19 19 19 19 19 20 20 20 20 19 20 20 20 19 19 19
22 21 22 22 20 21 21 21 21 21 20 20 20 20 21 22 22 21 20 20 20 20 19 19 19 19 19 19 19 19 19 19 19 19 20 20 20 20 20 20 20 19 20 20
23 23 24 21 21 21 21 21 21 21 22 22 23 22 23 23 22 22 21 21 21 20 20 20 20 20 20 20 19 20 19 19 19 19 19 20 20 20 21 21 21 20 21 21
25 25 25 23 22 22 22 22 22 23 22 23 23 24 24 24 23 22 22 22 22 21 21 21 21 21 21 21 21 21 20 20 20 20 20 21 21 21 21 22 22 22 21 22
27 27 26 23 23 24 24 24 24 23 23 24 24 24 25 25 24 23 23 22 22 22 22 22 22 22 22 22 22 21 20 21 21 21 21 22 22 22 22 22 22 22 22 23
28 29 28 26 25 25 25 25 25 25 25 24 24 25 26 25 25 24 24 23 23 24 23 23 23 23 23 23 22 22 22 22 22 22 23 23 23 23 23 23 23 23 23 24
30 30 29 28 27 28 28 28 27 27 27 27 27 27 27 27 27 27 26 25 25 25 25 25 25 25 24 24 24 24 24 23 23 24 24 24 24 24 24 24 25 25 24 25
30 30 30 29 30 30 29 29 30 29 29 29 29 28 28 28 28 28 28 28 28 28 27 27 27 26 26 25 26 26 25 25 25 25 25 25 25 25 25 25 25 25 25 25
33 32 32 31 30 32 32 32 32 32 31 31 30 30 30 30 30 30 30 30 30 30 29 29 28 28 28 27 27 27 26 25 25 25 25 25 25 25 26 26 25 25 25 25
35 34 34 33 33 33 34 34 33 33 33 32 32 32 32 32 32 32 32 32 32 32 31 31 30 30 29 29 28 28 27 27 27 27 27 27 27 27 27 27 27 27 26 26
37 36 37 37 36 36 36 35 35 35 34 34 33 33 34 34 33 33 33 33 33 33 32 32 31 30 30 30 29 29 29 30 29 29 29 29 28 29 29 29 28 28 27 27
39 39 39 39 39 39 38 36 35 35 35 34 34 35 35 35 34 34 34 34 33 33 33 32 32 32 32 32 32 31 31 31 31 31 30 30 30 31 30 29 29 29 29 29
39 40 39 39 39 39 38 37 36 35 35 35 35 35 35 35 35 34 34 34 34 34 34 33 33 33 33 33 33 33 33 33 33 33 33 32 32 32 31 31 30 30 30 30
38 39 39 39 39 38 38 37 37 36 36 35 35 35 35 35 35 35 35 35 34 34 34 34 34 33 33 34 34 34 34 34 34 34 34 34 33 33 33 32 32 31 31 31
37 38 38 38 38 38 38 38 37 37 36 36 36 36 36 36 36 35 35 35 35 34 34 34 34 34 34 35 34 34 34 35 35 34 34 34 34 34 34 33 33 32 32 32
36 36 37 37 38 38 38 38 37 36 36 36 37 37 37 37 36 36 36 35 36 36 36 36 35 36 35 36 36 35 35 35 35 34 35 35 35 35 34 34 34 34 34 33
34 35 36 36 37 37 37 37 37 37 37 37 37 37 37 37 37 36 36 35 36 36 36 36 36 37 36 36 37 36 36 35 35 35 35 35 35 35 35 35 35 35 34 34
32 34 35 35 36 36 37 37 37 36 36 36 36 36 36 36 36 36 36 36 35 35 35 36 37 37 36 36 36 35 35 35 35 35 35 35 34 35 35 35 35 35 35 34
33 34 34 35 36 36 36 35 36 36 36 36 36 35 35 35 35 35 35 35 34 34 34 35 36 35 35 35 36 35 35 35 35 35 35 34 34 35 35 35 35 35 35 35
32 34 34 35 35 35 35 34 35 35 35 36 36 35 35 35 35 35 35 34 33 34 34 35 35 35 35 35 35 35 35 35 35 35 34 35 35 35 35 36 36 35 35 36
32 33 34 34 34 34 34 35 35 36 36 36 36 36 36 35 35 35 35 35 34 34 34 34 35 35 34 35 35 35 35 35 35 35 35 36 36 36 36 36 36 35 35 35
32 33 34 34 33 34 34 35 35 36 36 36 36 35 35 35 35 35 35 35 35 35 35 34 35 34 35 35 35 35 35 36 36 36 36 37 37 36 36 36 36 36 36 35
31 31 32 32 32 33 33 33 34 35 35 34 35 35 35 34 34 35 35 35 35 35 35 35 35 35 36 36 35 35 35 35 36 36 37 37 36 36 36 36 36 36 36 36
30 31 31 31 32 32 32 33 33 33 34 34 34 34 35 35 35 35 35 34 34 34 34 34 35 35 36 36 36 36 36 36 36 36 36 36 36 36 37 37 36 36 36 36
31 31 31 31 31 32 32 32 33 33 33 34 34 34 35 35 34 34 34 34 34 34 34 34 34 35 36 35 35 35 36 36 36 36 36 35 35 36 37 37 37 37 37 37
31 31 31 31 32 32 32 32 32 32 32 33 33 33 33 33 34 34 34 34 33 34 35 35 35 35 35 35 35 35 35 35 35 35 35 35 35 36 36 36 37 37 37 37
Wind_Direction
263 263 264 268 271 273 270 269 269 270 273 277 279 284 286 288 290 291 293 294 295 295 294 294 294 296 298 298 296 294 293 294 293 293 293 292 292 291 288 288 287 286 284 282
265 263 263 266 269 271 272 270 271 273 273 273 275 279 284 286 289 289 290 293 293 293 293 292 293 295 297 296 295 294 293 294 294 294 292 291 290 289 288 288 288 286 282 282
264 263 264 266 270 272 272 269 270 272 271 271 273 277 282 285 286 287 288 291 291 292 293 293 293 295 297 296 295 294 295 296 296 296 294 292 291 289 289 288 287 284 283 283
264 262 264 272 273 271 272 271 272 273 271 272 274 277 281 284 284 286 288 289 290 290 290 291 292 294 295 295 294 294 294 295 295 296 295 294 293 292 290 288 285 283 282 281
263 264 266 267 269 270 273 273 273 273 272 272 274 275 278 281 283 285 287 288 288 288 288 289 290 292 292 292 293 292 292 294 295 295 294 293 292 291 290 289 286 283 283 282
262 265 268 270 270 270 272 272 272 275 274 273 274 274 277 280 282 283 284 285 285 286 287 288 289 289 290 291 291 291 291 292 294 295 296 295 293 291 290 289 287 284 283 284
261 263 265 269 270 270 270 273 273 274 275 275 275 275 276 279 281 281 282 283 283 284 285 286 287 287 288 289 289 289 289 290 293 295 296 296 295 292 290 289 287 286 286 286
262 263 264 267 268 268 269 270 271 273 275 275 274 275 276 278 279 279 280 280 281 282 283 285 285 285 285 286 287 287 287 288 289 292 294 295 295 293 291 289 287 286 286 286
264 265 266 267 267 268 268 269 270 271 271 272 273 274 275 276 276 277 278 278 279 280 282 282 283 283 283 283 285 286 286 287 288 289 291 293 294 293 292 290 288 287 286 287
263 264 264 264 265 266 268 269 270 271 271 272 273 273 274 275 275 276 277 277 278 279 279 280 280 281 282 283 283 285 286 286 287 288 289 291 292 293 292 290 289 288 287 286
262 263 264 264 264 265 267 268 268 269 271 273 273 273 273 273 273 274 275 276 277 277 277 278 278 278 279 280 281 283 284 285 286 287 288 288 289 291 292 290 288 289 287 287
261 263 263 263 264 265 267 268 269 270 270 272 272 272 272 273 273 274 275 275 275 275 275 275 276 276 276 277 278 280 282 283 285 286 285 286 287 288 289 289 289 288 286 286
262 263 263 263 263 264 266 267 269 268 269 270 271 272 273 273 274 274 275 275 274 275 275 274 275 275 274 275 276 277 280 281 283 285 285 286 286 287 287 287 287 287 285 285
262 262 262 263 263 264 265 266 267 268 269 270 270 272 273 273 273 273 273 274 274 274 274 273 274 274 273 273 274 276 278 280 281 283 284 285 286 287 286 285 285 286 286 285
263 263 263 263 263 264 265 266 267 268 269 270 271 271 271 271 271 272 272 273 273 274 274 274 274 274 273 273 273 275 276 278 280 281 282 283 284 285 286 285 284 284 285 285
263 263 263 263 263 264 265 266 267 268 270 271 272 272 272 272 272 273 273 273 274 274 274 275 275 274 274 274 275 276 277 278 279 280 280 282 283 285 285 284 283 283 284 285
263 263 263 263 262 263 264 266 268 269 270 272 273 273 272 272 272 273 273 273 274 275 275 275 275 274 273 274 275 276 276 277 278 279 280 281 283 284 284 284 283 283 283 283
265 263 263 263 263 263 263 266 269 270 271 272 272 273 273 272 272 273 273 273 274 275 276 275 275 274 274 274 275 275 275 276 277 278 279 280 282 284 285 284 284 283 282 282
266 264 264 264 264 265 266 266 267 269 270 272 272 272 272 271 271 272 273 273 273 275 275 275 275 275 274 275 275 275 275 276 277 278 279 280 281 284 285 285 284 283 283 283
266 265 265 265 265 266 267 268 268 269 271 272 273 273 272 272 271 272 273 273 274 276 275 274 275 275 275 275 276 275 275 276 278 278 278 279 281 283 285 286 285 284 282 282
266 265 266 266 266 266 266 268 270 271 272 273 273 273 273 273 272 272 273 274 274 275 275 275 275 276 275 275 276 276 276 277 278 279 279 280 282 283 285 285 285 285 284 283
268 267 267 268 266 266 267 269 271 273 273 273 273 273 273 272 272 273 273 274 275 275 275 275 275 275 275 275 276 277 277 278 279 279 279 281 282 284 285 285 285 285 285 284
270 268 267 267 268 268 268 269 271 273 274 275 274 273 273 273 273 273 273 273 273 273 274 274 275 275 275 275 276 277 278 280 280 281 281 281 282 283 285 285 286 285 285 285
269 267 266 267 268 270 270 270 272 273 274 274 274 273 273 273 274 274 274 274 273 274 274 275 275 275 274 275 276 277 279 280 281 281 281 281 281 283 284 285 286 286 285 286
268 267 267 267 268 270 271 271 272 273 273 273 273 273 274 274 275 274 273 274 274 275 274 274 275 276 276 276 276 277 278 279 280 280 281 281 282 282 283 284 284 285 286 287
267 267 267 268 269 271 272 273 273 273 273 273 273 273 274 275 276 276 274 274 275 275 275 276 277 277 277 277 277 277 277 277 279 280 281 281 281 282 282 283 284 285 286 287
267 266 266 267 268 271 273 275 275 274 274 274 273 273 274 275 275 276 275 274 274 275 275 275 276 277 277 278 278 278 277 278 279 281 282 282 282 282 282 283 284 286 287 287
Height
5823 5824 5823 5823 5824 5824 5825 5826 5826 5826 5826 5826 5824 5823 5823 5822 5821 5820 5819 5817 5816 5815 5814 5813 5812 5811 5809 5808 5807 5806 5804 5803 5802 5801 5800 5799 5798 5797 5796 5795 5794 5793 5792 5792
5818 5819 5818 5819 5820 5820 5820 5821 5821 5821 5821 5821 5820 5819 5818 5817 5816 5816 5815 5813 5812 5811 5810 5809 5807 5806 5805 5804 5802 5801 5800 5798 5797 5796 5795 5794 5793 5791 5790 5789 5788 5788 5787 5787
5812 5813 5812 5814 5815 5815 5816 5816 5816 5816 5817 5815 5815 5813 5813 5813 5812 5811 5810 5809 5808 5807 5805 5804 5803 5802 5800 5799 5797 5796 5795 5794 5792 5791 5789 5788 5787 5786 5785 5784 5783 5782 5782 5782
5806 5808 5807 5812 5810 5810 5810 5810 5810 5810 5810 5810 5810 5809 5808 5808 5807 5806 5805 5804 5803 5802 5801 5799 5798 5797 5795 5794 5793 5792 5790 5789 5787 5786 5784 5783 5782 5780 5779 5778 5777 5777 5776 5776
5800 5800 5801 5804 5805 5804 5805 5805 5805 5804 5805 5804 5804 5803 5802 5802 5801 5801 5800 5799 5798 5797 5796 5794 5793 5792 5790 5789 5788 5786 5785 5784 5782 5780 5779 5777 5776 5775 5773 5772 5771 5771 5770 5770
5794 5794 5795 5799 5799 5798 5800 5799 5798 5798 5798 5798 5798 5797 5797 5796 5795 5795 5794 5793 5792 5791 5790 5789 5788 5786 5785 5784 5782 5781 5780 5778 5777 5775 5773 5771 5770 5769 5767 5766 5765 5765 5764 5764
5788 5788 5789 5792 5792 5792 5793 5792 5791 5791 5791 5791 5791 5791 5790 5789 5789 5788 5787 5787 5786 5785 5784 5783 5781 5780 5779 5778 5776 5775 5774 5772 5771 5769 5767 5766 5764 5762 5761 5760 5759 5758 5758 5757
5781 5781 5784 5784 5784 5785 5784 5783 5783 5783 5784 5784 5784 5783 5783 5783 5782 5781 5781 5780 5779 5778 5777 5776 5775 5773 5772 5771 5770 5769 5768 5766 5765 5763 5761 5760 5758 5756 5755 5753 5752 5752 5751 5750
5774 5776 5776 5776 5776 5776 5776 5776 5775 5775 5776 5776 5776 5776 5775 5775 5774 5774 5773 5772 5771 5770 5769 5768 5767 5766 5765 5764 5763 5762 5761 5759 5758 5756 5755 5753 5752 5750 5748 5747 5745 5744 5743 5743
5765 5766 5767 5767 5767 5767 5767 5767 5767 5767 5767 5767 5767 5767 5767 5766 5766 5765 5765 5764 5763 5762 5761 5760 5759 5758 5757 5757 5755 5754 5753 5752 5751 5750 5748 5747 5745 5743 5742 5740 5738 5737 5736 5735
5755 5757 5757 5758 5757 5757 5758 5758 5758 5758 5758 5758 5758 5758 5758 5757 5757 5756 5755 5755 5754 5753 5753 5752 5751 5750 5749 5748 5747 5746 5746 5745 5743 5742 5741 5739 5738 5736 5734 5733 5731 5730 5728 5727
5745 5747 5746 5747 5748 5748 5748 5748 5748 5748 5749 5749 5748 5748 5747 5747 5747 5746 5746 5745 5744 5744 5743 5742 5742 5741 5740 5740 5739 5738 5737 5736 5735 5734 5733 5731 5730 5729 5726 5725 5723 5721 5720 5719
5733 5734 5734 5736 5737 5737 5737 5738 5738 5738 5738 5739 5738 5738 5737 5737 5736 5736 5735 5735 5734 5734 5733 5733 5732 5732 5731 5730 5730 5729 5728 5727 5726 5725 5724 5723 5721 5720 5718 5717 5714 5713 5711 5710
5721 5722 5723 5724 5725 5726 5726 5727 5728 5728 5728 5728 5728 5727 5727 5726 5726 5726 5725 5724 5724 5723 5723 5723 5722 5722 5721 5720 5720 5719 5718 5717 5717 5716 5715 5713 5712 5710 5709 5707 5706 5704 5702 5701
5709 5710 5711 5713 5714 5714 5715 5716 5717 5717 5717 5717 5717 5717 5716 5716 5715 5715 5715 5714 5713 5713 5712 5712 5712 5711 5711 5710 5710 5709 5708 5708 5707 5706 5705 5703 5702 5700 5699 5697 5696 5695 5693 5691
5698 5699 5700 5701 5702 5703 5703 5704 5705 5706 5706 5706 5706 5706 5705 5705 5705 5704 5704 5703 5703 5702 5702 5701 5701 5701 5700 5700 5699 5699 5698 5697 5696 5695 5694 5693 5692 5690 5689 5687 5686 5684 5683 5682
5687 5688 5689 5690 5690 5691 5692 5693 5693 5694 5695 5695 5695 5694 5694 5694 5694 5693 5693 5692 5692 5691 5691 5691 5690 5690 5689 5689 5688 5688 5687 5686 5685 5685 5684 5683 5681 5680 5678 5677 5675 5674 5673 5671
5675 5677 5678 5678 5679 5680 5681 5682 5682 5683 5683 5683 5683 5683 5683 5682 5682 5682 5681 5681 5680 5680 5680 5679 5679 5678 5678 5677 5677 5677 5676 5675 5675 5674 5673 5672 5671 5669 5667 5666 5664 5663 5662 5660
5665 5666 5667 5668 5668 5669 5670 5670 5671 5671 5671 5671 5671 5671 5671 5671 5671 5670 5670 5670 5669 5669 5669 5668 5667 5667 5667 5666 5665 5665 5665 5664 5664 5663 5662 5661 5660 5658 5657 5655 5654 5652 5651 5650
5655 5656 5656 5657 5657 5658 5659 5659 5660 5660 5661 5660 5660 5660 5660 5660 5660 5659 5659 5658 5658 5658 5657 5657 5656 5656 5655 5655 5654 5654 5654 5653 5652 5652 5651 5650 5649 5648 5646 5644 5643 5641 5640 5639
5645 5646 5646 5646 5647 5648 5648 5648 5649 5650 5650 5650 5649 5649 5649 5649 5649 5648 5648 5648 5648 5647 5646 5646 5645 5645 5644 5644 5643 5643 5642 5642 5641 5640 5639 5639 5638 5636 5635 5633 5631 5630 5628 5627
5635 5636 5636 5636 5637 5637 5638 5638 5638 5638 5638 5638 5638 5638 5638 5638 5638 5637 5637 5637 5637 5636 5635 5634 5634 5634 5633 5632 5632 5632 5631 5630 5630 5629 5628 5627 5626 5625 5623 5622 5620 5618 5617 5615
5625 5625 5626 5626 5627 5627 5627 5627 5627 5627 5627 5627 5627 5627 5627 5626 5626 5626 5626 5626 5625 5624 5623 5623 5622 5622 5621 5621 5621 5620 5620 5619 5618 5617 5616 5615 5614 5613 5612 5610 5608 5607 5606 5604
5615 5615 5615 5616 5616 5616 5617 5617 5617 5616 5616 5616 5616 5616 5615 5615 5615 5615 5614 5614 5613 5613 5612 5611 5611 5610 5610 5609 5609 5609 5608 5607 5606 5606 5605 5603 5602 5601 5600 5598 5597 5595 5594 5592
5604 5605 5605 5606 5606 5606 5606 5606 5606 5606 5605 5605 5605 5605 5604 5604 5604 5603 5603 5603 5602 5601 5600 5600 5599 5599 5598 5597 5597 5597 5596 5595 5594 5593 5593 5592 5590 5589 5588 5587 5585 5584 5582 5580
5595 5595 5595 5596 5596 5596 5596 5595 5595 5595 5594 5594 5594 5594 5593 5593 5592 5592 5591 5591 5591 5590 5589 5588 5588 5587 5586 5586 5585 5585 5584 5583 5582 5581 5581 5580 5578 5577 5576 5575 5573 5572 5570 5568
5585 5585 5586 5586 5586 5586 5585 5585 5584 5584 5583 5583 5583 5583 5582 5582 5581 5581 5580 5580 5579 5579 5578 5577 5577 5576 5575 5574 5574 5573 5572 5571 5570 5570 5569 5567 5566 5565 5564 5563 5561 5560 5558 5556